Time,TemperatureF,DewpointF,PressureIn,WindDirection,WindDirectionDegrees,WindSpeedMPH,WindSpeedGustMPH,Humidity,HourlyPrecipIn,Conditions,Clouds,dailyrainin,SoftwareType,DateUTC
2013-07-16 00:01:00,73.3,70.5,30.16,ESE,107,0.0,0.0,91,0.00,RA,,0.00,WeatherDisplay:10.37,2013-07-16 05:01:00,
2013-07-16 00:06:00,73.0,70.2,30.16,ESE,107,0.0,0.0,91,0.00,RA,,0.00,WeatherDisplay:10.37,2013-07-16 05:06:00,
2013-07-16 00:11:00,72.9,70.4,30.16,ESE,107,0.0,0.0,92,0.00,CLR,,0.00,WeatherDisplay:10.37,2013-07-16 05:11:00,
2013-07-16 00:16:00,72.8,70.3,30.16,ESE,107,0.0,0.0,92,0.00,CLR,,0.00,WeatherDisplay:10.37,2013-07-16 05:16:00,
2013-07-16 00:22:00,72.7,70.2,30.16,ESE,107,0.0,0.0,92,0.00,CLR,,0.00,WeatherDisplay:10.37,2013-07-16 05:22:00,
2013-07-16 00:27:00,72.7,70.6,30.16,ESE,107,0.0,0.0,93,0.00,CLR,,0.00,WeatherDisplay:10.37,2013-07-16 05:27:00,
2013-07-16 00:32:00,72.7,70.6,30.16,ESE,107,0.0,0.0,93,0.00,CLR,,0.00,WeatherDisplay:10.37,2013-07-16 05:32:00,
2013-07-16 00:37:00,72.6,70.5,30.17,ESE,107,0.0,0.0,93,0.00,CLR,,0.00,WeatherDisplay:10.37,2013-07-16 05:37:00,
2013-07-16 00:42:00,72.4,70.3,30.16,ESE,107,0.0,0.0,93,0.00,CLR,,0.00,WeatherDisplay:10.37,2013-07-16 05:42:00,
2013-07-16 00:47:00,72.3,70.2,30.16,ESE,107,0.0,0.0,93,0.00,CLR,,0.00,WeatherDisplay:10.37,2013-07-16 05:47:00,
2013-07-16 00:52:00,72.2,70.1,30.17,ESE,107,0.0,0.0,93,0.00,CLR,,0.00,WeatherDisplay:10.37,2013-07-16 05:52:00,
2013-07-16 00:57:00,72.1,70.0,30.16,ESE,107,0.0,0.0,93,0.00,CLR,,0.00,WeatherDisplay:10.37,2013-07-16 05:57:00,
2013-07-16 01:02:00,72.1,70.3,30.16,ESE,107,0.0,0.0,94,0.00,CLR,,0.00,WeatherDisplay:10.37,2013-07-16 06:02:00,
2013-07-16 01:07:00,72.1,70.3,30.16,ESE,107,0.0,0.0,94,0.00,CLR,,0.00,WeatherDisplay:10.37,2013-07-16 06:07:00,
2013-07-16 01:12:00,71.9,69.8,30.16,ESE,107,0.0,0.0,93,0.00,CLR,,0.00,WeatherDisplay:10.37,2013-07-16 06:12:00,
2013-07-16 01:17:00,71.7,69.6,30.16,ESE,107,0.0,0.0,93,0.00,CLR,,0.00,WeatherDisplay:10.37,2013-07-16 06:17:00,
2013-07-16 01:22:00,71.6,69.8,30.16,ESE,107,0.0,0.0,94,0.00,CLR,,0.00,WeatherDisplay:10.37,2013-07-16 06:22:00,
2013-07-16 01:27:00,71.6,69.8,30.16,ESE,107,0.0,0.0,94,0.00,CLR,,0.00,WeatherDisplay:10.37,2013-07-16 06:27:00,
2013-07-16 01:32:00,71.5,69.7,30.16,ESE,107,0.0,0.0,94,0.00,CLR,,0.00,WeatherDisplay:10.37,2013-07-16 06:32:00,
2013-07-16 01:37:00,71.6,69.8,30.16,ESE,107,0.0,0.0,94,0.00,CLR,,0.00,WeatherDisplay:10.37,2013-07-16 06:37:00,
2013-07-16 01:42:00,71.7,69.9,30.16,ESE,107,0.0,0.0,94,0.00,CLR,,0.00,WeatherDisplay:10.37,2013-07-16 06:42:00,
2013-07-16 01:47:00,71.7,69.9,30.16,ESE,107,0.0,0.0,94,0.00,CLR,,0.00,WeatherDisplay:10.37,2013-07-16 06:47:00,
2013-07-16 01:52:00,71.7,69.9,30.16,ESE,107,0.0,0.0,94,0.00,CLR,,0.00,WeatherDisplay:10.37,2013-07-16 06:52:00,
2013-07-16 01:57:00,71.8,70.0,30.16,ESE,107,0.0,0.0,94,0.00,CLR,,0.00,WeatherDisplay:10.37,2013-07-16 06:57:00,
2013-07-16 02:02:00,71.8,70.0,30.17,ESE,107,0.0,0.0,94,0.00,CLR,,0.00,WeatherDisplay:10.37,2013-07-16 07:02:00,
2013-07-16 02:07:00,71.7,69.9,30.16,ESE,107,0.0,0.0,94,0.00,CLR,,0.00,WeatherDisplay:10.37,2013-07-16 07:07:00,
2013-07-16 02:12:00,71.7,70.2,30.16,ESE,107,0.0,0.0,95,0.00,CLR,,0.00,WeatherDisplay:10.37,2013-07-16 07:12:00,
2013-07-16 02:17:00,71.6,69.8,30.16,ESE,107,0.0,0.0,94,0.00,CLR,,0.00,WeatherDisplay:10.37,2013-07-16 07:17:00,
2013-07-16 02:22:00,71.5,70.0,30.16,ESE,107,0.0,0.0,95,0.00,CLR,,0.00,WeatherDisplay:10.37,2013-07-16 07:22:00,
2013-07-16 02:27:00,71.5,70.0,30.16,ESE,107,0.0,0.0,95,0.00,CLR,,0.00,WeatherDisplay:10.37,2013-07-16 07:27:00,
2013-07-16 02:32:00,71.5,69.7,30.17,ESE,107,0.0,0.0,94,0.00,CLR,,0.00,WeatherDisplay:10.37,2013-07-16 07:32:00,
2013-07-16 02:37:00,71.4,69.6,30.16,ESE,107,0.0,0.0,94,0.00,CLR,,0.00,WeatherDisplay:10.37,2013-07-16 07:37:00,
2013-07-16 02:42:00,71.4,69.6,30.16,ESE,107,0.0,0.0,94,0.00,CLR,,0.00,WeatherDisplay:10.37,2013-07-16 07:42:00,
2013-07-16 02:47:00,71.4,69.9,30.16,ESE,107,0.0,0.0,95,0.00,CLR,,0.00,WeatherDisplay:10.37,2013-07-16 07:47:00,
2013-07-16 02:52:00,71.2,69.4,30.16,ESE,107,0.0,0.0,94,0.00,CLR,,0.00,WeatherDisplay:10.37,2013-07-16 07:52:00,
2013-07-16 02:57:00,71.0,69.2,30.17,ESE,107,0.0,0.0,94,0.00,CLR,,0.00,WeatherDisplay:10.37,2013-07-16 07:57:00,
2013-07-16 03:02:00,71.0,69.5,30.16,ESE,107,0.0,0.0,95,0.00,CLR,,0.00,WeatherDisplay:10.37,2013-07-16 08:02:00,
2013-07-16 03:07:00,70.9,69.4,30.16,ESE,107,0.0,0.0,95,0.00,CLR,,0.00,WeatherDisplay:10.37,2013-07-16 08:07:00,
2013-07-16 03:12:00,70.9,69.4,30.16,ESE,107,0.0,0.0,95,0.00,CLR,,0.00,WeatherDisplay:10.37,2013-07-16 08:12:00,
2013-07-16 03:17:00,70.8,69.3,30.16,ESE,107,0.0,0.0,95,0.00,CLR,,0.00,WeatherDisplay:10.37,2013-07-16 08:17:00,
2013-07-16 03:22:00,70.9,69.4,30.16,ESE,107,0.0,0.0,95,0.00,CLR,,0.00,WeatherDisplay:10.37,2013-07-16 08:22:00,
2013-07-16 03:27:00,70.9,69.4,30.16,ESE,107,0.0,0.0,95,0.00,CLR,,0.00,WeatherDisplay:10.37,2013-07-16 08:27:00,
2013-07-16 03:32:00,70.8,69.3,30.16,ESE,107,0.0,0.0,95,0.00,CLR,,0.00,WeatherDisplay:10.37,2013-07-16 08:32:00,
2013-07-16 03:37:00,70.8,69.3,30.16,ESE,107,0.0,0.0,95,0.00,CLR,,0.00,WeatherDisplay:10.37,2013-07-16 08:37:00,
2013-07-16 03:42:00,70.8,69.3,30.16,ESE,107,0.0,0.0,95,0.00,CLR,,0.00,WeatherDisplay:10.37,2013-07-16 08:42:00,
2013-07-16 03:47:00,70.7,69.2,30.16,ESE,107,0.0,0.0,95,0.00,CLR,,0.00,WeatherDisplay:10.37,2013-07-16 08:47:00,
2013-07-16 03:52:00,70.7,69.2,30.16,ESE,107,0.0,0.0,95,0.00,CLR,,0.00,WeatherDisplay:10.37,2013-07-16 08:52:00,
2013-07-16 03:57:00,70.7,69.2,30.17,ESE,107,0.0,0.0,95,0.00,CLR,,0.00,WeatherDisplay:10.37,2013-07-16 08:57:00,
2013-07-16 04:02:00,70.8,69.3,30.17,ESE,107,0.0,0.0,95,0.00,CLR,,0.00,WeatherDisplay:10.37,2013-07-16 09:02:00,
2013-07-16 04:07:00,70.8,69.3,30.17,ESE,107,0.0,0.0,95,0.00,CLR,,0.00,WeatherDisplay:10.37,2013-07-16 09:07:00,
2013-07-16 04:12:00,70.6,69.1,30.17,ESE,107,0.0,0.0,95,0.00,CLR,,0.00,WeatherDisplay:10.37,2013-07-16 09:12:00,
2013-07-16 04:17:00,70.5,69.0,30.17,ESE,107,0.0,0.0,95,0.00,CLR,,0.00,WeatherDisplay:10.37,2013-07-16 09:17:00,
2013-07-16 04:22:00,70.4,68.9,30.17,ESE,107,0.0,0.0,95,0.00,CLR,,0.00,WeatherDisplay:10.37,2013-07-16 09:22:00,
2013-07-16 04:27:00,70.5,69.0,30.17,ESE,107,0.0,0.0,95,0.00,CLR,,0.00,WeatherDisplay:10.37,2013-07-16 09:27:00,
2013-07-16 04:32:00,70.5,69.0,30.17,ESE,107,0.0,0.0,95,0.00,CLR,,0.00,WeatherDisplay:10.37,2013-07-16 09:32:00,
2013-07-16 04:37:00,70.5,69.0,30.17,ESE,107,0.0,0.0,95,0.00,CLR,,0.00,WeatherDisplay:10.37,2013-07-16 09:37:00,
2013-07-16 04:42:00,70.6,69.1,30.18,ESE,107,0.0,0.0,95,0.00,CLR,,0.00,WeatherDisplay:10.37,2013-07-16 09:42:00,
2013-07-16 04:47:00,70.6,69.1,30.18,ESE,107,0.0,0.0,95,0.00,CLR,,0.00,WeatherDisplay:10.37,2013-07-16 09:47:00,
2013-07-16 04:52:00,70.6,69.1,30.18,ESE,107,0.0,0.0,95,0.00,CLR,,0.00,WeatherDisplay:10.37,2013-07-16 09:52:00,
2013-07-16 04:57:00,70.5,69.0,30.18,ESE,107,0.0,0.0,95,0.00,CLR,,0.00,WeatherDisplay:10.37,2013-07-16 09:57:00,
2013-07-16 05:02:00,70.4,68.9,30.18,ESE,107,0.0,0.0,95,0.00,CLR,,0.00,WeatherDisplay:10.37,2013-07-16 10:02:00,
2013-07-16 05:07:00,70.3,68.8,30.18,ESE,107,0.0,0.0,95,0.00,CLR,,0.00,WeatherDisplay:10.37,2013-07-16 10:07:00,
2013-07-16 05:12:00,70.3,69.1,30.18,ESE,107,0.0,0.0,96,0.00,CLR,,0.00,WeatherDisplay:10.37,2013-07-16 10:12:00,
2013-07-16 05:17:00,70.4,69.2,30.18,ESE,107,0.0,0.0,96,0.00,CLR,,0.00,WeatherDisplay:10.37,2013-07-16 10:17:00,
2013-07-16 05:22:00,70.4,69.2,30.18,ESE,107,0.0,0.0,96,0.00,CLR,,0.00,WeatherDisplay:10.37,2013-07-16 10:22:00,
2013-07-16 05:28:00,70.5,69.3,30.19,ESE,107,0.0,0.0,96,0.00,CLR,,0.00,WeatherDisplay:10.37,2013-07-16 10:28:00,
2013-07-16 05:33:00,70.5,69.3,30.19,ESE,107,0.0,0.0,96,0.00,CLR,,0.00,WeatherDisplay:10.37,2013-07-16 10:33:00,
2013-07-16 05:38:00,70.5,69.0,30.19,ESE,107,0.0,0.0,95,0.00,CLR,,0.00,WeatherDisplay:10.37,2013-07-16 10:38:00,
2013-07-16 05:43:00,70.3,68.8,30.19,ESE,107,0.0,0.0,95,0.00,CLR,,0.00,WeatherDisplay:10.37,2013-07-16 10:43:00,
2013-07-16 05:48:00,70.2,69.0,30.19,ESE,107,0.0,0.0,96,0.00,CLR,,0.00,WeatherDisplay:10.37,2013-07-16 10:48:00,
2013-07-16 05:53:00,70.3,69.1,30.19,ESE,107,0.0,0.0,96,0.00,CLR,,0.00,WeatherDisplay:10.37,2013-07-16 10:53:00,
2013-07-16 05:58:00,70.4,69.2,30.19,ESE,107,0.0,0.0,96,0.00,CLR,,0.00,WeatherDisplay:10.37,2013-07-16 10:58:00,
2013-07-16 06:03:00,70.5,69.3,30.20,ESE,107,0.0,0.0,96,0.00,CLR,,0.00,WeatherDisplay:10.37,2013-07-16 11:03:00,
2013-07-16 06:08:00,70.5,69.3,30.20,ESE,107,0.0,0.0,96,0.00,CLR,,0.00,WeatherDisplay:10.37,2013-07-16 11:08:00,
2013-07-16 06:13:00,70.6,69.4,30.20,ESE,107,0.0,0.0,96,0.00,CLR,,0.00,WeatherDisplay:10.37,2013-07-16 11:13:00,
2013-07-16 06:18:00,70.6,69.4,30.20,ESE,107,0.0,0.0,96,0.00,CLR,,0.00,WeatherDisplay:10.37,2013-07-16 11:18:00,
2013-07-16 06:23:00,70.7,69.5,30.20,ESE,107,0.0,0.0,96,0.00,CLR,,0.00,WeatherDisplay:10.37,2013-07-16 11:23:00,
2013-07-16 06:28:00,70.7,69.5,30.20,ESE,107,0.0,0.0,96,0.00,CLR,,0.00,WeatherDisplay:10.37,2013-07-16 11:28:00,
2013-07-16 06:33:00,70.7,69.5,30.20,ESE,107,0.0,0.0,96,0.00,CLR,,0.00,WeatherDisplay:10.37,2013-07-16 11:33:00,
2013-07-16 06:38:00,70.8,69.6,30.20,ESE,107,0.0,0.0,96,0.00,CLR,,0.00,WeatherDisplay:10.37,2013-07-16 11:38:00,
2013-07-16 06:43:00,70.9,69.7,30.20,ESE,107,0.0,0.0,96,0.00,CLR,,0.00,WeatherDisplay:10.37,2013-07-16 11:43:00,
2013-07-16 06:48:00,71.2,70.3,30.20,ESE,107,0.0,0.0,97,0.00,CLR,,0.00,WeatherDisplay:10.37,2013-07-16 11:48:00,
2013-07-16 06:53:00,71.5,70.6,30.21,ESE,107,0.0,0.0,97,0.00,CLR,,0.00,WeatherDisplay:10.37,2013-07-16 11:53:00,
2013-07-16 06:58:00,71.8,70.9,30.21,ESE,107,0.0,0.0,97,0.00,CLR,,0.00,WeatherDisplay:10.37,2013-07-16 11:58:00,
2013-07-16 07:03:00,72.0,71.1,30.21,ESE,107,0.0,0.0,97,0.00,CLR,,0.00,WeatherDisplay:10.37,2013-07-16 12:03:00,
2013-07-16 07:08:00,72.1,71.2,30.21,ESE,107,0.0,0.0,97,0.00,CLR,,0.00,WeatherDisplay:10.37,2013-07-16 12:08:00,
2013-07-16 07:13:00,72.3,71.4,30.21,ESE,107,0.0,0.0,97,0.00,CLR,,0.00,WeatherDisplay:10.37,2013-07-16 12:13:00,
2013-07-16 07:18:00,72.6,71.7,30.21,ESE,107,0.0,0.0,97,0.00,CLR,,0.00,WeatherDisplay:10.37,2013-07-16 12:18:00,
2013-07-16 07:23:00,72.8,71.9,30.21,ESE,105,0.0,0.0,97,0.00,CLR,,0.00,WeatherDisplay:10.37,2013-07-16 12:23:00,
2013-07-16 07:28:00,73.1,72.2,30.22,ESE,103,0.0,0.0,97,0.00,CLR,,0.00,WeatherDisplay:10.37,2013-07-16 12:28:00,
2013-07-16 07:33:00,73.5,72.6,30.22,ESE,113,0.0,0.0,97,0.00,CLR,,0.00,WeatherDisplay:10.37,2013-07-16 12:33:00,
2013-07-16 07:38:00,73.7,72.8,30.22,ESE,105,0.0,0.0,97,0.00,CLR,,0.00,WeatherDisplay:10.37,2013-07-16 12:38:00,
2013-07-16 07:44:00,73.9,73.0,30.22,ESE,104,1.1,1.1,97,0.00,CLR,,0.00,WeatherDisplay:10.37,2013-07-16 12:44:00,
2013-07-16 07:49:00,74.2,73.0,30.22,East,90,1.1,1.1,96,0.00,CLR,,0.00,WeatherDisplay:10.37,2013-07-16 12:49:00,
2013-07-16 07:54:00,74.4,73.2,30.23,ESE,107,0.0,0.0,96,0.00,CLR,,0.00,WeatherDisplay:10.37,2013-07-16 12:54:00,
2013-07-16 07:59:00,74.6,73.4,30.23,ESE,107,0.0,0.0,96,0.00,CLR,,0.00,WeatherDisplay:10.37,2013-07-16 12:59:00,
2013-07-16 08:04:00,74.9,73.7,30.23,East,94,0.0,0.0,96,0.00,CLR,,0.00,WeatherDisplay:10.37,2013-07-16 13:04:00,
2013-07-16 08:09:00,75.0,73.8,30.23,East,94,1.1,0.0,96,0.00,CLR,,0.00,WeatherDisplay:10.37,2013-07-16 13:09:00,
2013-07-16 08:14:00,75.3,73.8,30.23,East,79,1.1,0.0,95,0.00,CLR,,0.00,WeatherDisplay:10.37,2013-07-16 13:14:00,
2013-07-16 08:19:00,75.7,73.8,30.23,SW,236,0.0,0.0,94,0.00,CLR,,0.00,WeatherDisplay:10.37,2013-07-16 13:19:00,
2013-07-16 08:24:00,76.1,73.9,30.23,West,269,0.0,0.0,93,0.00,CLR,,0.00,WeatherDisplay:10.37,2013-07-16 13:24:00,
2013-07-16 08:29:00,76.4,74.2,30.23,East,99,0.0,0.0,93,0.00,CLR,,0.00,WeatherDisplay:10.37,2013-07-16 13:29:00,
2013-07-16 08:34:00,76.9,74.4,30.23,ESE,111,1.1,1.1,92,0.00,CLR,,0.00,WeatherDisplay:10.37,2013-07-16 13:34:00,
2013-07-16 08:39:00,77.4,74.6,30.23,East,93,1.1,1.1,91,0.00,CLR,,0.00,WeatherDisplay:10.37,2013-07-16 13:39:00,
2013-07-16 08:44:00,77.8,74.6,30.23,WSW,242,0.0,0.0,90,0.00,CLR,,0.00,WeatherDisplay:10.37,2013-07-16 13:44:00,
2013-07-16 08:49:00,78.2,74.7,30.24,WSW,242,0.0,0.0,89,0.00,CLR,,0.00,WeatherDisplay:10.37,2013-07-16 13:49:00,
2013-07-16 08:54:00,78.5,74.6,30.24,SE,145,0.0,0.0,88,0.00,CLR,,0.00,WeatherDisplay:10.37,2013-07-16 13:54:00,
2013-07-16 08:59:00,78.7,74.5,30.24,WSW,244,1.1,1.1,87,0.00,CLR,,0.00,WeatherDisplay:10.37,2013-07-16 13:59:00,
2013-07-16 09:04:00,79.1,74.9,30.24,WSW,250,0.0,0.0,87,0.00,CLR,,0.00,WeatherDisplay:10.37,2013-07-16 14:04:00,
2013-07-16 09:09:00,79.4,74.8,30.24,WSW,247,2.3,2.3,86,0.00,CLR,,0.00,WeatherDisplay:10.37,2013-07-16 14:09:00,
2013-07-16 09:14:00,79.8,74.9,30.24,WSW,240,3.5,3.5,85,0.00,CLR,,0.00,WeatherDisplay:10.37,2013-07-16 14:14:00,
2013-07-16 09:19:00,80.1,75.2,30.24,WNW,290,1.1,1.1,85,0.00,CLR,,0.00,WeatherDisplay:10.37,2013-07-16 14:19:00,
2013-07-16 09:24:00,80.5,75.2,30.24,SW,236,1.1,1.1,84,0.00,CLR,,0.00,WeatherDisplay:10.37,2013-07-16 14:24:00,
2013-07-16 09:29:00,80.9,74.9,30.24,ESE,111,4.6,4.6,82,0.00,CLR,,0.00,WeatherDisplay:10.37,2013-07-16 14:29:00,
2013-07-16 09:34:00,81.7,75.3,30.24,East,87,0.0,0.0,81,0.00,CLR,,0.00,WeatherDisplay:10.37,2013-07-16 14:34:00,
2013-07-16 09:39:00,82.3,75.5,30.24,SW,216,2.3,2.3,80,0.00,CLR,,0.00,WeatherDisplay:10.37,2013-07-16 14:39:00,
2013-07-16 09:44:00,82.5,76.1,30.24,WSW,240,1.1,1.1,81,0.00,CLR,,0.00,WeatherDisplay:10.37,2013-07-16 14:44:00,
2013-07-16 09:49:00,82.9,75.3,30.24,East,96,2.3,2.3,78,0.00,CLR,,0.00,WeatherDisplay:10.37,2013-07-16 14:49:00,
2013-07-16 09:54:00,83.5,75.9,30.24,ENE,64,1.1,1.1,78,0.00,CLR,,0.00,WeatherDisplay:10.37,2013-07-16 14:54:00,
2013-07-16 09:59:00,84.3,76.3,30.24,ESE,104,1.1,1.1,77,0.00,CLR,,0.00,WeatherDisplay:10.37,2013-07-16 14:59:00,
2013-07-16 10:04:00,84.7,76.7,30.24,South,173,0.0,0.0,77,0.00,CLR,,0.00,WeatherDisplay:10.37,2013-07-16 15:04:00,
2013-07-16 10:09:00,84.5,76.1,30.24,SW,223,1.1,1.1,76,0.00,CLR,,0.00,WeatherDisplay:10.37,2013-07-16 15:09:00,
2013-07-16 10:14:00,85.0,77.0,30.24,SW,231,1.1,1.1,77,0.00,CLR,,0.00,WeatherDisplay:10.37,2013-07-16 15:14:00,
2013-07-16 10:19:00,85.6,76.8,30.24,West,259,2.3,2.3,75,0.00,CLR,,0.00,WeatherDisplay:10.37,2013-07-16 15:19:00,
2013-07-16 10:24:00,85.7,76.0,30.24,WSW,247,1.1,1.1,73,0.00,CLR,,0.00,WeatherDisplay:10.37,2013-07-16 15:24:00,
2013-07-16 10:29:00,85.6,76.4,30.24,West,264,0.0,0.0,74,0.00,CLR,,0.00,WeatherDisplay:10.37,2013-07-16 15:29:00,
2013-07-16 10:34:00,85.7,76.5,30.24,SW,224,2.3,2.3,74,0.00,CLR,,0.00,WeatherDisplay:10.37,2013-07-16 15:34:00,
2013-07-16 10:39:00,85.9,77.1,30.24,West,265,3.5,3.5,75,0.00,CLR,,0.00,WeatherDisplay:10.37,2013-07-16 15:39:00,
2013-07-16 10:44:00,86.2,76.9,30.24,SW,227,3.5,3.5,74,0.00,CLR,,0.00,WeatherDisplay:10.37,2013-07-16 15:44:00,
2013-07-16 10:49:00,86.6,75.6,30.24,SW,214,0.0,0.0,70,0.00,CLR,,0.00,WeatherDisplay:10.37,2013-07-16 15:49:00,
2013-07-16 10:54:00,87.4,77.3,30.24,SW,227,1.1,0.0,72,0.00,CLR,,0.00,WeatherDisplay:10.37,2013-07-16 15:54:00,
2013-07-16 10:59:00,87.7,74.9,30.24,SE,127,1.1,1.1,66,0.00,CLR,,0.00,WeatherDisplay:10.37,2013-07-16 15:59:00,
2013-07-16 11:04:00,87.6,76.6,30.24,SW,224,1.1,1.1,70,0.00,CLR,,0.00,WeatherDisplay:10.37,2013-07-16 16:04:00,
2013-07-16 11:09:00,87.5,77.8,30.24,SW,224,0.0,0.0,73,0.00,CLR,,0.00,WeatherDisplay:10.37,2013-07-16 16:09:00,
2013-07-16 11:14:00,87.4,77.7,30.24,WSW,244,1.1,1.1,73,0.00,CLR,,0.00,WeatherDisplay:10.37,2013-07-16 16:14:00,
2013-07-16 11:19:00,87.2,77.5,30.24,WNW,296,2.3,2.3,73,0.00,CLR,,0.00,WeatherDisplay:10.37,2013-07-16 16:19:00,
2013-07-16 11:24:00,86.8,77.5,30.24,West,277,1.1,1.1,74,0.00,CLR,,0.00,WeatherDisplay:10.37,2013-07-16 16:24:00,
2013-07-16 11:29:00,86.9,76.8,30.24,West,275,1.1,1.1,72,0.00,CLR,,0.00,WeatherDisplay:10.37,2013-07-16 16:29:00,
2013-07-16 11:34:00,87.0,77.7,30.23,West,263,0.0,0.0,74,0.00,CLR,,0.00,WeatherDisplay:10.37,2013-07-16 16:34:00,
2013-07-16 11:39:00,86.8,76.3,30.23,West,263,0.0,0.0,71,0.00,CLR,,0.00,WeatherDisplay:10.37,2013-07-16 16:39:00,
2013-07-16 11:44:00,86.7,77.4,30.23,West,263,0.0,0.0,74,0.00,CLR,,0.00,WeatherDisplay:10.37,2013-07-16 16:44:00,
2013-07-16 11:49:00,87.0,78.1,30.23,West,263,0.0,0.0,75,0.00,CLR,,0.00,WeatherDisplay:10.37,2013-07-16 16:49:00,
2013-07-16 11:54:00,87.2,76.2,30.23,West,263,0.0,0.0,70,0.00,CLR,,0.00,WeatherDisplay:10.37,2013-07-16 16:54:00,
2013-07-16 11:59:00,87.8,77.6,30.23,WSW,242,3.5,3.5,72,0.00,CLR,,0.00,WeatherDisplay:10.37,2013-07-16 16:59:00,
2013-07-16 12:04:00,88.2,78.4,30.23,SW,234,2.0,2.0,73,0.00,CLR,,0.00,WeatherDisplay:10.37,2013-07-16 17:04:00,
2013-07-16 12:09:00,88.2,77.6,30.23,SW,234,0.0,0.0,71,0.00,CLR,,0.00,WeatherDisplay:10.37,2013-07-16 17:09:00,
2013-07-16 12:14:00,88.1,76.2,30.23,WSW,240,1.1,0.0,68,0.00,CLR,,0.00,WeatherDisplay:10.37,2013-07-16 17:14:00,
2013-07-16 12:19:00,88.1,76.6,30.23,WSW,240,0.0,0.0,69,0.00,CLR,,0.00,WeatherDisplay:10.37,2013-07-16 17:19:00,
2013-07-16 12:24:00,88.4,79.1,30.23,WSW,242,2.0,2.0,74,0.00,CLR,,0.00,WeatherDisplay:10.37,2013-07-16 17:24:00,
2013-07-16 12:29:00,88.6,78.4,30.22,WSW,243,2.3,2.3,72,0.00,CLR,,0.00,WeatherDisplay:10.37,2013-07-16 17:29:00,
2013-07-16 12:34:00,88.4,75.6,30.22,SSE,158,1.1,1.1,66,0.00,CLR,,0.00,WeatherDisplay:10.37,2013-07-16 17:34:00,
2013-07-16 12:39:00,88.4,76.5,30.22,SSE,158,0.0,0.0,68,0.00,CLR,,0.00,WeatherDisplay:10.37,2013-07-16 17:39:00,
2013-07-16 12:44:00,88.4,76.9,30.22,SSE,158,0.0,0.0,69,0.00,CLR,,0.00,WeatherDisplay:10.37,2013-07-16 17:44:00,
2013-07-16 12:49:00,88.4,78.2,30.22,South,186,0.0,0.0,72,0.00,CLR,,0.00,WeatherDisplay:10.37,2013-07-16 17:49:00,
2013-07-16 12:54:00,88.0,76.1,30.22,SSE,165,0.0,0.0,68,0.00,CLR,,0.00,WeatherDisplay:10.37,2013-07-16 17:54:00,
2013-07-16 12:59:00,87.7,77.1,30.22,SSE,165,0.0,0.0,71,0.00,CLR,,0.00,WeatherDisplay:10.37,2013-07-16 17:59:00,
2013-07-16 13:04:00,87.8,77.2,30.21,SSW,195,0.0,0.1,71,0.00,CLR,,0.00,WeatherDisplay:10.37,2013-07-16 18:04:00,
2013-07-16 13:09:00,87.9,75.1,30.21,SE,142,0.0,0.0,66,0.00,CLR,,0.00,WeatherDisplay:10.37,2013-07-16 18:09:00,
2013-07-16 13:14:00,88.0,75.2,30.22,SE,142,0.0,0.0,66,0.00,CLR,,0.00,WeatherDisplay:10.37,2013-07-16 18:14:00,
2013-07-16 13:20:00,88.1,76.2,30.21,SE,142,0.0,0.0,68,0.00,CLR,,0.00,WeatherDisplay:10.37,2013-07-16 18:20:00,
2013-07-16 13:25:00,88.1,77.1,30.21,SE,142,0.0,0.0,70,0.00,CLR,,0.00,WeatherDisplay:10.37,2013-07-16 18:25:00,
2013-07-16 13:30:00,88.0,76.1,30.21,SE,142,0.0,0.0,68,0.00,CLR,,0.00,WeatherDisplay:10.37,2013-07-16 18:30:00,
2013-07-16 13:35:00,87.9,76.0,30.21,SE,142,0.0,0.0,68,0.00,CLR,,0.00,WeatherDisplay:10.37,2013-07-16 18:35:00,
2013-07-16 13:40:00,87.7,74.9,30.21,SE,142,0.0,0.0,66,0.00,CLR,,0.00,WeatherDisplay:10.37,2013-07-16 18:40:00,
2013-07-16 13:45:00,87.1,75.3,30.21,SE,142,0.0,0.0,68,0.00,CLR,,0.00,WeatherDisplay:10.37,2013-07-16 18:45:00,
2013-07-16 13:50:00,86.8,76.3,30.20,SE,142,0.0,0.0,71,0.00,CLR,,0.00,WeatherDisplay:10.37,2013-07-16 18:50:00,
2013-07-16 13:55:00,86.5,76.4,30.20,SE,142,0.0,0.0,72,0.00,CLR,,0.00,WeatherDisplay:10.37,2013-07-16 18:55:00,
2013-07-16 14:00:00,86.5,75.1,30.20,SE,142,0.0,0.0,69,0.00,CLR,,0.00,WeatherDisplay:10.37,2013-07-16 19:00:00,
2013-07-16 14:05:00,87.0,74.3,30.20,SSW,195,0.0,2.0,66,0.00,CLR,,0.00,WeatherDisplay:10.37,2013-07-16 19:05:00,
2013-07-16 14:10:00,87.4,76.4,30.20,NE,44,0.0,0.0,70,0.00,CLR,,0.00,WeatherDisplay:10.37,2013-07-16 19:10:00,
2013-07-16 14:15:00,87.2,75.3,30.20,ENE,69,0.0,0.0,68,0.00,CLR,,0.00,WeatherDisplay:10.37,2013-07-16 19:15:00,
2013-07-16 14:20:00,87.3,75.0,30.20,ENE,69,0.0,1.0,67,0.00,CLR,,0.00,WeatherDisplay:10.37,2013-07-16 19:20:00,
2013-07-16 14:25:00,87.4,75.6,30.20,ENE,69,0.0,0.0,68,0.00,CLR,,0.00,WeatherDisplay:10.37,2013-07-16 19:25:00,
2013-07-16 14:30:00,87.7,75.8,30.20,ENE,70,0.0,0.0,68,0.00,CLR,,0.00,WeatherDisplay:10.37,2013-07-16 19:30:00,
2013-07-16 14:35:00,88.2,75.4,30.20,ENE,71,0.0,0.0,66,0.00,CLR,,0.00,WeatherDisplay:10.37,2013-07-16 19:35:00,
2013-07-16 14:40:00,88.9,75.6,30.20,East,80,0.0,1.0,65,0.00,CLR,,0.00,WeatherDisplay:10.37,2013-07-16 19:40:00,
2013-07-16 14:45:00,88.7,75.0,30.20,East,92,0.0,0.0,64,0.00,CLR,,0.00,WeatherDisplay:10.37,2013-07-16 19:45:00,
2013-07-16 14:50:00,88.4,74.7,30.19,East,92,0.0,0.0,64,0.00,CLR,,0.00,WeatherDisplay:10.37,2013-07-16 19:50:00,
2013-07-16 14:55:00,88.1,74.8,30.19,East,92,0.0,0.0,65,0.00,CLR,,0.00,WeatherDisplay:10.37,2013-07-16 19:55:00,
2013-07-16 15:00:00,88.3,75.9,30.19,SE,124,1.1,0.0,67,0.00,CLR,,0.00,WeatherDisplay:10.37,2013-07-16 20:00:00,
2013-07-16 15:05:00,88.6,74.4,30.19,ESE,106,0.0,0.0,63,0.00,CLR,,0.00,WeatherDisplay:10.37,2013-07-16 20:05:00,
2013-07-16 15:10:00,89.0,75.7,30.19,SE,124,3.5,3.5,65,0.00,CLR,,0.00,WeatherDisplay:10.37,2013-07-16 20:10:00,
2013-07-16 15:15:00,89.3,75.5,30.19,SE,124,0.0,1.0,64,0.00,CLR,,0.00,WeatherDisplay:10.37,2013-07-16 20:15:00,
2013-07-16 15:20:00,89.8,76.0,30.19,ESE,115,1.1,0.0,64,0.00,CLR,,0.00,WeatherDisplay:10.37,2013-07-16 20:20:00,
2013-07-16 15:25:00,90.4,76.1,30.19,SE,124,0.0,3.0,63,0.00,CLR,,0.00,WeatherDisplay:10.37,2013-07-16 20:25:00,
2013-07-16 15:30:00,90.8,75.0,30.19,ESE,117,1.0,3.0,60,0.00,CLR,,0.00,WeatherDisplay:10.37,2013-07-16 20:30:00,
2013-07-16 15:35:00,91.3,75.5,30.19,ESE,112,0.0,0.0,60,0.00,CLR,,0.00,WeatherDisplay:10.37,2013-07-16 20:35:00,
2013-07-16 15:40:00,91.9,75.5,30.18,ENE,75,2.3,2.3,59,0.00,CLR,,0.00,WeatherDisplay:10.37,2013-07-16 20:40:00,
2013-07-16 15:45:00,92.2,76.3,30.18,SE,138,0.0,4.0,60,0.00,CLR,,0.00,WeatherDisplay:10.37,2013-07-16 20:45:00,
2013-07-16 15:50:00,92.6,77.2,30.18,SW,217,0.0,5.0,61,0.00,CLR,,0.00,WeatherDisplay:10.37,2013-07-16 20:50:00,
2013-07-16 15:55:00,92.6,75.1,30.18,SSW,209,0.0,1.0,57,0.00,CLR,,0.00,WeatherDisplay:10.37,2013-07-16 20:55:00,
2013-07-16 16:00:00,92.4,75.0,30.18,South,186,0.0,1.0,57,0.00,CLR,,0.00,WeatherDisplay:10.37,2013-07-16 21:00:00,
2013-07-16 16:05:00,92.1,75.7,30.18,SSE,164,0.0,0.1,59,0.00,CLR,,0.00,WeatherDisplay:10.37,2013-07-16 21:05:00,
2013-07-16 16:10:00,91.6,74.7,30.18,SSE,168,0.0,1.0,58,0.00,CLR,,0.00,WeatherDisplay:10.37,2013-07-16 21:10:00,
2013-07-16 16:15:00,91.0,74.7,30.18,SSE,163,0.0,0.0,59,0.00,CLR,,0.00,WeatherDisplay:10.37,2013-07-16 21:15:00,
2013-07-16 16:20:00,90.7,76.3,30.18,SSE,163,0.0,0.0,63,0.00,CLR,,0.00,WeatherDisplay:10.37,2013-07-16 21:20:00,
2013-07-16 16:25:00,90.5,74.2,30.18,SSE,158,0.0,1.0,59,0.00,CLR,,0.00,WeatherDisplay:10.37,2013-07-16 21:25:00,
2013-07-16 16:30:00,90.9,75.6,30.18,SE,128,0.0,0.0,61,0.00,CLR,,0.00,WeatherDisplay:10.37,2013-07-16 21:30:00,
2013-07-16 16:35:00,91.4,75.1,30.18,East,101,0.0,0.0,59,0.00,CLR,,0.00,WeatherDisplay:10.37,2013-07-16 21:35:00,
2013-07-16 16:40:00,91.9,76.0,30.18,ESE,114,0.0,1.0,60,0.00,CLR,,0.00,WeatherDisplay:10.37,2013-07-16 21:40:00,
2013-07-16 16:45:00,91.8,74.4,30.18,ESE,120,0.0,0.0,57,0.00,CLR,,0.00,WeatherDisplay:10.37,2013-07-16 21:45:00,
2013-07-16 16:50:00,91.4,74.5,30.18,ESE,118,0.0,3.0,58,0.00,CLR,,0.00,WeatherDisplay:10.37,2013-07-16 21:50:00,
2013-07-16 16:55:00,91.0,75.2,30.18,East,100,0.0,1.0,60,0.00,CLR,,0.00,WeatherDisplay:10.37,2013-07-16 21:55:00,
2013-07-16 17:00:00,90.7,74.9,30.18,ESE,109,0.0,0.0,60,0.00,CLR,,0.00,WeatherDisplay:10.37,2013-07-16 22:00:00,
2013-07-16 17:05:00,90.5,75.2,30.18,ESE,109,0.0,0.0,61,0.00,CLR,,0.00,WeatherDisplay:10.37,2013-07-16 22:05:00,
2013-07-16 17:10:00,90.1,76.3,30.17,ESE,109,0.0,0.0,64,0.00,CLR,,0.00,WeatherDisplay:10.37,2013-07-16 22:10:00,
2013-07-16 17:15:00,89.6,76.3,30.18,ESE,106,0.0,1.0,65,0.00,CLR,,0.00,WeatherDisplay:10.37,2013-07-16 22:15:00,
2013-07-16 17:20:00,89.2,75.9,30.18,ESE,103,0.0,1.0,65,0.00,CLR,,0.00,WeatherDisplay:10.37,2013-07-16 22:20:00,
2013-07-16 17:25:00,88.8,76.0,30.17,ESE,104,0.0,0.0,66,0.00,CLR,,0.00,WeatherDisplay:10.37,2013-07-16 22:25:00,
2013-07-16 17:30:00,88.7,75.9,30.17,SE,145,0.0,0.0,66,0.00,CLR,,0.00,WeatherDisplay:10.37,2013-07-16 22:30:00,
2013-07-16 17:35:00,88.9,76.1,30.17,SSE,149,1.1,0.0,66,0.00,CLR,,0.00,WeatherDisplay:10.37,2013-07-16 22:35:00,
2013-07-16 17:40:00,89.0,76.2,30.17,SSE,148,0.0,0.0,66,0.00,CLR,,0.00,WeatherDisplay:10.37,2013-07-16 22:40:00,
2013-07-16 17:45:00,89.2,75.9,30.17,SE,144,0.0,2.0,65,0.00,CLR,,0.00,WeatherDisplay:10.37,2013-07-16 22:45:00,
2013-07-16 17:50:00,89.7,75.4,30.17,ESE,109,0.0,0.0,63,0.00,CLR,,0.00,WeatherDisplay:10.37,2013-07-16 22:50:00,
2013-07-16 17:55:00,89.9,75.6,30.17,ESE,109,0.0,0.0,63,0.00,CLR,,0.00,WeatherDisplay:10.37,2013-07-16 22:55:00,
2013-07-16 18:00:00,89.9,76.1,30.17,ESE,109,0.0,0.0,64,0.00,CLR,,0.00,WeatherDisplay:10.37,2013-07-16 23:00:00,
2013-07-16 18:05:00,90.0,75.2,30.17,ESE,105,3.5,3.5,62,0.00,CLR,,0.00,WeatherDisplay:10.37,2013-07-16 23:05:00,
2013-07-16 18:10:00,90.1,75.8,30.17,ESE,111,0.0,0.0,63,0.00,CLR,,0.00,WeatherDisplay:10.37,2013-07-16 23:10:00,
2013-07-16 18:15:00,90.2,75.9,30.17,ESE,111,0.0,0.0,63,0.00,CLR,,0.00,WeatherDisplay:10.37,2013-07-16 23:15:00,
2013-07-16 18:20:00,90.4,75.6,30.17,East,88,1.1,0.0,62,0.00,CLR,,0.00,WeatherDisplay:10.37,2013-07-16 23:20:00,
2013-07-16 18:25:00,90.7,76.4,30.17,East,88,0.0,0.0,63,0.00,CLR,,0.00,WeatherDisplay:10.37,2013-07-16 23:25:00,
2013-07-16 18:30:00,91.0,76.2,30.17,East,88,0.0,0.0,62,0.00,CLR,,0.00,WeatherDisplay:10.37,2013-07-16 23:30:00,
2013-07-16 18:35:00,91.0,75.7,30.17,East,89,0.0,0.0,61,0.00,CLR,,0.00,WeatherDisplay:10.37,2013-07-16 23:35:00,
2013-07-16 18:40:00,90.9,76.1,30.17,ESE,112,0.0,0.2,62,0.00,CLR,,0.00,WeatherDisplay:10.37,2013-07-16 23:40:00,
2013-07-16 18:45:00,90.8,76.0,30.17,ESE,112,1.1,0.0,62,0.00,CLR,,0.00,WeatherDisplay:10.37,2013-07-16 23:45:00,
2013-07-16 18:50:00,90.8,75.5,30.17,ESE,112,0.0,0.0,61,0.00,CLR,,0.00,WeatherDisplay:10.37,2013-07-16 23:50:00,
2013-07-16 18:55:00,90.7,75.4,30.17,ESE,112,0.0,0.0,61,0.00,CLR,,0.00,WeatherDisplay:10.37,2013-07-16 23:55:00,
2013-07-16 19:00:00,90.9,75.6,30.17,ESE,112,0.0,0.0,61,0.00,CLR,,0.00,WeatherDisplay:10.37,2013-07-17 00:00:00,
2013-07-16 19:05:00,91.0,75.7,30.17,ESE,112,0.0,0.0,61,0.00,CLR,,0.00,WeatherDisplay:10.37,2013-07-17 00:05:00,
2013-07-16 19:10:00,91.1,75.3,30.17,ESE,112,0.0,0.0,60,0.00,CLR,,0.00,WeatherDisplay:10.37,2013-07-17 00:10:00,
2013-07-16 19:11:00,91.1,75.3,30.17,ESE,112,0.0,0.0,60,0.00,CLR,,0.00,WeatherDisplay:10.37,2013-07-17 00:11:00,
2013-07-16 19:16:00,91.4,75.6,30.17,ESE,112,0.0,0.0,60,0.00,CLR,,0.00,WeatherDisplay:10.37,2013-07-17 00:16:00,
2013-07-16 19:21:00,91.7,75.8,30.17,ESE,112,0.0,0.0,60,0.00,CLR,,0.00,WeatherDisplay:10.37,2013-07-17 00:21:00,
2013-07-16 19:26:00,91.9,75.5,30.17,ESE,112,0.0,0.0,59,0.00,CLR,,0.00,WeatherDisplay:10.37,2013-07-17 00:26:00,
2013-07-16 19:31:00,91.7,74.8,30.17,ESE,112,0.0,0.0,58,0.00,CLR,,0.00,WeatherDisplay:10.37,2013-07-17 00:31:00,
2013-07-16 19:36:00,91.1,75.8,30.17,ESE,112,0.0,0.0,61,0.00,CLR,,0.00,WeatherDisplay:10.37,2013-07-17 00:36:00,
2013-07-16 19:41:00,90.3,76.9,30.17,ESE,112,0.0,0.0,65,0.00,CLR,,0.00,WeatherDisplay:10.37,2013-07-17 00:41:00,
2013-07-16 19:46:00,89.4,77.0,30.17,ESE,112,0.0,0.0,67,0.00,CLR,,0.00,WeatherDisplay:10.37,2013-07-17 00:46:00,
2013-07-16 19:51:00,88.6,76.2,30.17,ESE,112,0.0,0.0,67,0.00,CLR,,0.00,WeatherDisplay:10.37,2013-07-17 00:51:00,
2013-07-16 19:56:00,87.8,75.5,30.17,ESE,112,0.0,0.0,67,0.00,CLR,,0.00,WeatherDisplay:10.37,2013-07-17 00:56:00,
2013-07-16 20:01:00,87.2,75.8,30.17,ESE,112,0.0,0.0,69,0.00,CLR,,0.00,WeatherDisplay:10.37,2013-07-17 01:01:00,
2013-07-16 20:06:00,86.6,75.6,30.17,ESE,112,0.0,0.0,70,0.00,CLR,,0.00,WeatherDisplay:10.37,2013-07-17 01:06:00,
2013-07-16 20:11:00,86.0,75.9,30.17,ESE,112,0.0,0.0,72,0.00,CLR,,0.00,WeatherDisplay:10.37,2013-07-17 01:11:00,
2013-07-16 20:16:00,85.4,75.8,30.17,ESE,112,0.0,0.0,73,0.00,CLR,,0.00,WeatherDisplay:10.37,2013-07-17 01:16:00,
2013-07-16 20:21:00,84.8,75.6,30.18,ESE,112,0.0,0.0,74,0.00,CLR,,0.00,WeatherDisplay:10.37,2013-07-17 01:21:00,
2013-07-16 20:26:00,84.0,75.2,30.18,ESE,112,0.0,0.0,75,0.00,CLR,,0.00,WeatherDisplay:10.37,2013-07-17 01:26:00,
2013-07-16 20:31:00,83.1,75.1,30.18,ESE,112,0.0,0.0,77,0.00,CLR,,0.00,WeatherDisplay:10.37,2013-07-17 01:31:00,
2013-07-16 20:36:00,82.5,74.9,30.17,ESE,112,0.0,0.0,78,0.00,CLR,,0.00,WeatherDisplay:10.37,2013-07-17 01:36:00,
2013-07-16 20:41:00,81.8,75.0,30.18,ESE,112,0.0,0.0,80,0.00,CLR,,0.00,WeatherDisplay:10.37,2013-07-17 01:41:00,
2013-07-16 20:46:00,81.2,74.8,30.18,ESE,112,0.0,0.0,81,0.00,CLR,,0.00,WeatherDisplay:10.37,2013-07-17 01:46:00,
2013-07-16 20:51:00,80.7,74.7,30.18,ESE,112,0.0,0.0,82,0.00,CLR,,0.00,WeatherDisplay:10.37,2013-07-17 01:51:00,
2013-07-16 20:56:00,80.3,74.3,30.18,ESE,112,0.0,0.0,82,0.00,CLR,,0.00,WeatherDisplay:10.37,2013-07-17 01:56:00,
2013-07-16 21:01:00,79.9,74.3,30.19,ESE,112,0.0,0.0,83,0.00,CLR,,0.00,WeatherDisplay:10.37,2013-07-17 02:01:00,
2013-07-16 21:06:00,79.6,74.0,30.19,ESE,112,0.0,0.0,83,0.00,CLR,,0.00,WeatherDisplay:10.37,2013-07-17 02:06:00,
2013-07-16 21:11:00,79.3,73.7,30.19,ESE,112,0.0,0.0,83,0.00,CLR,,0.00,WeatherDisplay:10.37,2013-07-17 02:11:00,
2013-07-16 21:16:00,79.0,73.4,30.19,ESE,112,0.0,0.0,83,0.00,CLR,,0.00,WeatherDisplay:10.37,2013-07-17 02:16:00,
2013-07-16 21:21:00,78.9,73.7,30.20,ESE,112,0.0,0.0,84,0.00,CLR,,0.00,WeatherDisplay:10.37,2013-07-17 02:21:00,
2013-07-16 21:26:00,78.8,73.6,30.20,ESE,112,0.0,0.0,84,0.00,CLR,,0.00,WeatherDisplay:10.37,2013-07-17 02:26:00,
2013-07-16 21:31:00,78.7,73.5,30.20,ESE,112,0.0,0.0,84,0.00,CLR,,0.00,WeatherDisplay:10.37,2013-07-17 02:31:00,
2013-07-16 21:36:00,78.5,73.6,30.20,ESE,112,0.0,0.0,85,0.00,CLR,,0.00,WeatherDisplay:10.37,2013-07-17 02:36:00,
2013-07-16 21:42:00,78.3,73.4,30.20,ESE,112,0.0,0.0,85,0.00,CLR,,0.00,WeatherDisplay:10.37,2013-07-17 02:42:00,
2013-07-16 21:46:00,78.1,73.2,30.20,ESE,112,0.0,0.0,85,0.00,CLR,,0.00,WeatherDisplay:10.37,2013-07-17 02:46:00,
2013-07-16 21:52:00,77.9,73.4,30.20,ESE,112,0.0,0.0,86,0.00,CLR,,0.00,WeatherDisplay:10.37,2013-07-17 02:52:00,
2013-07-16 21:57:00,77.7,73.2,30.20,ESE,112,0.0,0.0,86,0.00,CLR,,0.00,WeatherDisplay:10.37,2013-07-17 02:57:00,
2013-07-16 22:02:00,77.6,73.4,30.21,ESE,112,0.0,0.0,87,0.00,CLR,,0.00,WeatherDisplay:10.37,2013-07-17 03:02:00,
2013-07-16 22:07:00,77.4,73.2,30.21,ESE,112,0.0,0.0,87,0.00,CLR,,0.00,WeatherDisplay:10.37,2013-07-17 03:07:00,
2013-07-16 22:12:00,77.1,72.9,30.21,ESE,112,0.0,0.0,87,0.00,CLR,,0.00,WeatherDisplay:10.37,2013-07-17 03:12:00,
2013-07-16 22:17:00,76.9,72.7,30.21,ESE,112,0.0,0.0,87,0.00,CLR,,0.00,WeatherDisplay:10.37,2013-07-17 03:17:00,
2013-07-16 22:22:00,76.7,72.9,30.21,ESE,112,0.0,0.0,88,0.00,CLR,,0.00,WeatherDisplay:10.37,2013-07-17 03:22:00,
2013-07-16 22:27:00,76.6,72.8,30.21,ESE,112,0.0,0.0,88,0.00,CLR,,0.00,WeatherDisplay:10.37,2013-07-17 03:27:00,
2013-07-16 22:32:00,76.3,72.5,30.21,ESE,112,0.0,0.0,88,0.00,CLR,,0.00,WeatherDisplay:10.37,2013-07-17 03:32:00,
2013-07-16 22:37:00,76.2,72.4,30.22,ESE,112,0.0,0.0,88,0.00,CLR,,0.00,WeatherDisplay:10.37,2013-07-17 03:37:00,
2013-07-16 22:42:00,76.0,72.2,30.22,ESE,112,0.0,0.0,88,0.00,CLR,,0.00,WeatherDisplay:10.37,2013-07-17 03:42:00,
2013-07-16 22:47:00,75.9,72.4,30.21,ESE,112,0.0,0.0,89,0.00,CLR,,0.00,WeatherDisplay:10.37,2013-07-17 03:47:00,
2013-07-16 22:52:00,75.8,72.3,30.21,ESE,112,0.0,0.0,89,0.00,CLR,,0.00,WeatherDisplay:10.37,2013-07-17 03:52:00,
2013-07-16 22:57:00,75.7,72.2,30.22,ESE,112,0.0,0.0,89,0.00,CLR,,0.00,WeatherDisplay:10.37,2013-07-17 03:57:00,
2013-07-16 23:01:00,75.8,72.7,30.22,ESE,112,0.0,0.0,90,0.00,CLR,,0.00,WeatherDisplay:10.37,2013-07-17 04:01:00,
2013-07-16 23:06:00,75.7,72.6,30.22,ESE,112,0.0,0.0,90,0.00,CLR,,0.00,WeatherDisplay:10.37,2013-07-17 04:06:00,
2013-07-16 23:11:00,75.6,72.5,30.22,ESE,112,0.0,0.0,90,0.00,CLR,,0.00,WeatherDisplay:10.37,2013-07-17 04:11:00,
2013-07-16 23:16:00,75.5,72.4,30.22,ESE,112,0.0,0.0,90,0.00,CLR,,0.00,WeatherDisplay:10.37,2013-07-17 04:16:00,
2013-07-16 23:21:00,75.4,72.3,30.22,ESE,112,0.0,0.0,90,0.00,CLR,,0.00,WeatherDisplay:10.37,2013-07-17 04:21:00,
2013-07-16 23:26:00,75.3,72.2,30.22,ESE,112,0.0,0.0,90,0.00,CLR,,0.00,WeatherDisplay:10.37,2013-07-17 04:26:00,
2013-07-16 23:31:00,75.3,72.2,30.22,ESE,112,0.0,0.0,90,0.00,CLR,,0.00,WeatherDisplay:10.37,2013-07-17 04:31:00,
2013-07-16 23:36:00,75.1,72.0,30.22,ESE,112,0.0,0.0,90,0.00,CLR,,0.00,WeatherDisplay:10.37,2013-07-17 04:36:00,
2013-07-16 23:41:00,75.0,71.9,30.22,ESE,112,0.0,0.0,90,0.00,CLR,,0.00,WeatherDisplay:10.37,2013-07-17 04:41:00,
2013-07-16 23:46:00,74.9,71.8,30.22,ESE,112,0.0,0.0,90,0.00,CLR,,0.00,WeatherDisplay:10.37,2013-07-17 04:46:00,
2013-07-16 23:51:00,74.8,71.7,30.22,ESE,112,0.0,0.0,90,0.00,CLR,,0.00,WeatherDisplay:10.37,2013-07-17 04:51:00,
2013-07-16 23:55:00,74.8,71.7,30.22,ESE,112,0.0,0.0,90,0.00,CLR,,0.00,WeatherDisplay:10.37,2013-07-17 04:55:00,
2013-07-16 23:59:00,74.7,71.6,30.22,ESE,112,0.0,0.0,90,0.00,CLR,,0.00,WeatherDisplay:10.37,2013-07-17 04:59:00,